Flag for Norway Weather past 2 weeks in Sandefjord, Norway

Now
39 °F

Fog.


Feels Like: 36 °F
Forecast: 27 / 34 °F
Wind: 5 mph from Southwest

Location: Torp

Current Time: Jan 26, 2015 at 12:35:57 PM

Latest Report: Jan 26, 2015 at 11:50 AM


Visibility: 4 mi

Pressure: 29.65 "Hg

Humidity: 93%

Dew point: 37 °F

Location of SandefjordLocation

Historic Weather in Sandefjord — Graph

°F

Sandefjord temperature yesterday

Maximum temperature yesterday: 36 °F (at 10:20 PM)
Minimum temperature yesterday: 18 °F (at 9:50 AM)
Average temperature yesterday: 28 °F

Past Weeks' High & Low Weather Summary

 TemperatureHumidityPressure
High45 °F (Jan 16, 12:50 PM)100% (Jan 11, 2:20 PM)30.21 "Hg (Jan 11, 2:20 PM)
Low9 °F (Jan 23, 9:50 AM)61% (Jan 12, 9:50 PM)28.82 "Hg (Jan 16, 6:50 AM)
Average33 °F88%29.64 "Hg
* Reported Jan 11 11:20 AM — Jan 26 11:20 AM, Sandefjord, Weather by CustomWeather, © 2014

Note: Actual official high and low records may vary slightly from our data, if they occured in-between our weather recording intervals... More about our weather records

Advertising

Sandefjord weather history for previous 24 hours

 ConditionsComfort  
Time TempWeatherWind HumidityBarometerVisibility
11:20 AM
Jan 26
37 °FDrizzle. Fog.5 mph100%29.65 "Hg1 mi
10:50 AM39 °FDrizzle. Fog.6 mph100%29.65 "Hg1 mi
10:20 AM39 °FFog.6 mph100%29.68 "Hg0 mi
9:50 AM39 °FFog.7 mph100%29.68 "Hg0 mi
9:20 AM39 °FDrizzle. Dense fog.10 mph100%29.68 "Hg1 mi
8:50 AM39 °FDrizzle. Fog.14 mph100%29.71 "Hg1 mi
8:20 AM39 °FDrizzle. Fog.16 mph100%29.71 "Hg1 mi
7:50 AM39 °FDrizzle. Low clouds.15 mph100%29.74 "Hg4 mi
7:20 AM39 °FLight rain. Low clouds.16 mph100%29.74 "Hg3 mi
6:50 AM39 °FLight rain. Fog.16 mph100%29.74 "Hg1 mi
6:20 AM39 °FDrizzle. Fog.15 mph100%29.77 "Hg1 mi
5:50 AM39 °FLight rain. Fog.16 mph100%29.77 "Hg1 mi
5:20 AM39 °FDrizzle. Low clouds.20 mph100%29.80 "Hg1 mi
4:50 AM39 °FFog.21 mph100%29.80 "Hg1 mi
4:20 AM39 °FFog.20 mph100%29.83 "Hg2 mi
3:50 AM39 °FFog.18 mph100%29.83 "Hg1 mi
3:20 AM39 °FLight rain. Low clouds.18 mph100%29.86 "Hg3 mi
2:50 AM39 °FDrizzle. Low clouds.18 mph100%29.89 "Hg3 mi
2:20 AM39 °FLight rain. Mostly cloudy.21 mph100%29.89 "Hg2 mi
1:50 AM39 °FDrizzle. Low clouds.18 mph93%29.89 "Hg2 mi
1:20 AM39 °FLow clouds.17 mph100%29.92 "HgN/A
12:50 AM37 °FLow clouds.16 mph100%29.92 "Hg2 mi
12:20 AM36 °FFog.12 mph100%29.95 "Hg1 mi
11:50 PM
Jan 25
36 °FFog.12 mph100%29.98 "Hg2 mi
11:20 PM34 °FFog.12 mph93%29.98 "Hg2 mi
10:50 PM36 °FPassing clouds.12 mph87%29.98 "HgN/A
10:20 PM36 °FPartly cloudy.10 mph87%30.01 "HgN/A
9:50 PM34 °FOvercast.9 mph87%30.04 "HgN/A
9:20 PM34 °FPassing clouds.9 mph87%30.04 "HgN/A
8:50 PM34 °FPassing clouds.8 mph100%30.07 "HgN/A
8:20 PM32 °FFog.8 mph100%30.07 "HgN/A
7:50 PM32 °FFog.9 mph100%30.07 "Hg0 mi
7:20 PM32 °FIce fog.7 mph100%30.07 "Hg1 mi
6:50 PM30 °FIce fog.7 mph100%30.09 "Hg2 mi
6:20 PM30 °FIce fog.7 mph100%30.09 "Hg1 mi
5:50 PM30 °FIce fog.6 mph100%30.09 "Hg2 mi
5:20 PM28 °FIce fog.3 mph100%30.09 "Hg2 mi
4:50 PM28 °FIce fog.3 mph100%30.09 "Hg4 mi
4:20 PM28 °FPassing clouds.3 mph100%30.09 "Hg4 mi
3:50 PM28 °FPartly sunny.3 mph93%30.09 "Hg4 mi
3:20 PM28 °FIce fog.2 mph93%30.09 "Hg3 mi
2:50 PM27 °FChilly.3 mph93%30.09 "HgN/A
2:20 PM28 °FFog.2 mph93%30.09 "HgN/A
1:50 PM28 °FChilly.1 mph86%30.12 "HgN/A
1:20 PM28 °FChilly.3 mph93%30.09 "HgN/A
12:50 PM27 °FChilly.3 mph93%30.09 "HgN/A
12:20 PM27 °FLight fog.2 mph93%30.09 "Hg1 mi
Weather by CustomWeather, © 2014

See weather overviewHow to use our weather pages